sat.trackr.live / text

‹ back to catalog

STARLINK-31497

NORAD 60592 · 2024-150K

PAYLOAD ACTIVE UNKNOWN

§ Identity

Operator
Country
US
Launch date
2024-08-20
Launch site
AFETR
Launch vehicle
Mass (kg)
RCS (m²)

Purposes: comms

External: N2YO · Heavens-Above · Gunter

§ Orbital elements

Epoch: 2026-09-21T19:59:19.779648Z

Period
93.85 min
Inclination
53.1587°
Eccentricity
0.0001328
Mean motion
15.34385170 rev/d
Perigee alt
461.8 km
Apogee alt
463.7 km
Semi-major
6,840.9 km
B*
7.9663e-6
RAAN
111.5735°
Arg perigee
97.0520°
Mean anomaly
263.0634°
Rev number
11,813

§ Raw data

STARLINK-314971 60592U 24150K   26264.83286782 -.00000107  00000+0  79663-5 0  99922 60592  53.1587 111.5735 0001328  97.0520 263.0634 15.34385170118138

JSON: /api/v1/satellites/60592 · /tle

For live sub-satellite position, see the globe view (requires WebGL).

§ Visibility from observer

Set your observer location to see the next 7 days of passes ≥ 10°. The values pass through the URL so the page stays shareable.

No JS? Fill the form by hand. The geolocation button needs JavaScript.